Terminal Aerodrome Forecast
Issued by NWS

Home | Current Version | Previous Version | Text Only | Print | Product List | Glossary On
Versions: 1 2 3 4 5 6 7 8 9 10 11 12 13 14 15 16 17 18 19 20 21 22 23 24 25 26 27 28 29 30 31 32 33
000
FTAK31 PANC 302330
TAFAAQ
TAF
PAAQ 302330Z 3100/3124 VRB05KT P6SM VCSH FEW035 BKN080
     FM310900 35004KT P6SM FEW045 BKN060
     FM311800 VRB05KT P6SM SCT080 SCT150=

USA.gov is the U.S. government's official web portal to all federal, state and local government web resources and services.